This is the latest recevied weather packets stored in our database for station/object KB3VSP. If no packets are shown the sender has not sent any weather packets the latest 10 day(s).
| Time | Temp. | Humidity | Pressure | Rain* | Wind** | Luminosity | Snow |
|---|---|---|---|---|---|---|---|
| 1777573500 | 8.33° C | 76% | 1014.3 hPa | 0 mm | - | 86 W/m² | - |
| 1777573196 | 8.33° C | 76% | 1014.1 hPa | 0 mm | - | 149 W/m² | - |
| 1777572893 | 8.33° C | 77% | 1014.1 hPa | 0 mm | - | 186 W/m² | - |
| 1777572589 | 7.78° C | 78% | 1013.9 hPa | 0 mm | - | 113 W/m² | - |
| 1777572283 | 7.78° C | 77% | 1014.1 hPa | 0 mm | - | 85 W/m² | - |
| 1777571974 | 8.33° C | 76% | 1014.1 hPa | 0 mm | - | 108 W/m² | - |
| 1777571674 | 7.78° C | 77% | 1014.1 hPa | 0 mm | - | 186 W/m² | - |
| 1777571372 | 7.78° C | 76% | 1013.8 hPa | 0 mm | - | 80 W/m² | - |
| 1777571068 | 8.33° C | 77% | 1014.2 hPa | 0 mm | - | 105 W/m² | - |
| 1777570764 | 8.33° C | 78% | 1014.1 hPa | 0 mm | - | 177 W/m² | - |
| 1777570461 | 7.78° C | 80% | 1013.8 hPa | 0 mm | - | 203 W/m² | - |
| 1777570156 | 8.33° C | 80% | 1014.1 hPa | 0 mm | - | 138 W/m² | - |
| 1777569853 | 7.78° C | 81% | 1013.9 hPa | 0 mm | - | 203 W/m² | - |
| 1777569549 | 7.78° C | 81% | 1013.9 hPa | 0 mm | - | 215 W/m² | - |
| 1777569245 | 7.22° C | 82% | 1014 hPa | 0 mm | - | 251 W/m² | - |
| 1777568942 | 7.22° C | 84% | 1014.1 hPa | 0 mm | - | 156 W/m² | - |
| 1777568638 | 6.67° C | 84% | 1014 hPa | 0 mm | - | 108 W/m² | - |
| 1777568336 | 6.67° C | 85% | 1014.1 hPa | 0 mm | - | 136 W/m² | - |
| 1777568032 | 6.67° C | 85% | 1014.1 hPa | 0 mm | - | 79 W/m² | - |
| 1777567729 | 6.67° C | 85% | 1014 hPa | 0 mm | - | 58 W/m² | - |
| 1777567425 | 6.67° C | 84% | 1014.1 hPa | 0 mm | - | 74 W/m² | - |
| 1777567124 | 7.22° C | 84% | 1014.3 hPa | 0 mm | - | 42 W/m² | - |
| 1777566821 | 7.22° C | 84% | 1014 hPa | 0 mm | - | 46 W/m² | - |
| 1777566519 | 7.22° C | 83% | 1013.9 hPa | 0 mm | - | 100 W/m² | - |
| 1777566216 | 7.22° C | 84% | 1014 hPa | 0 mm | - | 141 W/m² | - |
* Rain latest hour (hover to see other rain measurements)
** Current wind speed in m/s (hover to see current wind gust speed)